Orbital elements: 2009 MF10 Epoch 2011 Feb. 8.0 TT = JDT 2455600.5 MPC M 23.81400 (2000.0) P Q n 0.00226042 Peri. 263.12259 -0.65590702 +0.70167889 a 57.5011170 Node 320.82062 -0.39054830 -0.63092574 e 0.5233507 Incl. 26.13390 -0.64595511 -0.33102786 P 436 H 6.1 G 0.15 U 6
Orbital elements: 2009 MF10 Epoch 2009 July 8.0 TT = JDT 2455020.5 MPC M 42.39148 (2000.0) P Q n 0.00371057 Peri. 272.16983 -0.54918912 +0.77922549 a 41.3214651 Node 319.27710 -0.45458014 -0.58177260 e 0.2141601 Incl. 27.57391 -0.70124760 -0.23312720 P 266 H 6.0 G 0.15 From 7 observations 2009 June 27-Aug. 25.